Year,Month,Day,Hour,Minute,Value (Times are PST for temperature in C)
2017,04,05,00,01,10.20
2017,04,05,00,02,10.20
2017,04,05,00,03,10.20
2017,04,05,00,04,10.20
2017,04,05,00,06,10.20
2017,04,05,00,07,10.20
2017,04,05,00,09,10.30
2017,04,05,00,11,10.30
2017,04,05,00,12,10.30
2017,04,05,00,13,10.30
2017,04,05,00,14,10.30
2017,04,05,00,16,10.40
2017,04,05,00,17,10.40
2017,04,05,00,18,10.40
2017,04,05,00,19,10.40
2017,04,05,00,21,10.40
2017,04,05,00,22,10.40
2017,04,05,00,23,10.40
2017,04,05,00,24,10.40
2017,04,05,00,26,10.40
2017,04,05,00,27,10.40
2017,04,05,00,28,10.40
2017,04,05,00,29,10.30
2017,04,05,00,31,10.30
2017,04,05,00,32,10.30
2017,04,05,00,33,10.30
2017,04,05,00,34,10.30
2017,04,05,00,36,10.20
2017,04,05,00,37,10.20
2017,04,05,00,38,10.20
2017,04,05,00,39,10.20
2017,04,05,00,41,10.10
2017,04,05,00,42,10.10
2017,04,05,00,43,10.10
2017,04,05,00,44,10.10
2017,04,05,00,46,10.10
2017,04,05,00,47,9.90
2017,04,05,00,48,9.90
2017,04,05,00,49,9.90
2017,04,05,00,51,9.90
2017,04,05,00,52,9.90
2017,04,05,00,53,9.80
2017,04,05,00,54,9.80
2017,04,05,00,56,9.80
2017,04,05,00,57,9.80
2017,04,05,00,58,9.80
2017,04,05,00,59,9.80
2017,04,05,01,01,9.80
2017,04,05,01,02,9.80
2017,04,05,01,03,9.80
2017,04,05,01,04,9.80
2017,04,05,01,06,9.80
2017,04,05,01,07,9.80
2017,04,05,01,08,9.80
2017,04,05,01,09,9.80
2017,04,05,01,10,9.80
2017,04,05,01,11,9.80
2017,04,05,01,12,9.80
2017,04,05,01,13,9.80
2017,04,05,01,14,9.80
2017,04,05,01,15,9.80
2017,04,05,01,16,9.90
2017,04,05,01,17,9.90
2017,04,05,01,18,9.90
2017,04,05,01,19,9.90
2017,04,05,01,20,9.90
2017,04,05,01,21,9.90
2017,04,05,01,22,9.90
2017,04,05,01,23,9.90
2017,04,05,01,24,9.90
2017,04,05,01,25,9.90
2017,04,05,01,26,9.90
2017,04,05,01,27,9.90
2017,04,05,01,28,9.90
2017,04,05,01,29,9.90
2017,04,05,01,30,9.90
2017,04,05,01,31,9.90
2017,04,05,01,32,9.90
2017,04,05,01,33,9.90
2017,04,05,01,34,9.90
2017,04,05,01,35,9.90
2017,04,05,01,36,9.90
2017,04,05,01,37,9.90
2017,04,05,01,38,9.90
2017,04,05,01,39,9.90
2017,04,05,01,40,9.90
2017,04,05,01,41,9.90
2017,04,05,01,42,9.90
2017,04,05,01,43,9.90
2017,04,05,01,44,9.90
2017,04,05,01,45,9.90
2017,04,05,01,46,9.90
2017,04,05,01,47,9.90
2017,04,05,01,48,9.90
2017,04,05,01,49,9.90
2017,04,05,01,50,9.90
2017,04,05,01,51,9.90
2017,04,05,01,52,9.90
2017,04,05,01,53,9.90
2017,04,05,01,54,9.90
2017,04,05,01,55,9.80
2017,04,05,01,56,9.80
2017,04,05,01,57,9.80
2017,04,05,01,58,9.80
2017,04,05,01,59,9.80
2017,04,05,02,00,9.80
2017,04,05,02,01,9.80
2017,04,05,02,02,9.80
2017,04,05,02,03,9.80
2017,04,05,02,04,9.80
2017,04,05,02,05,9.80
2017,04,05,02,06,9.80
2017,04,05,02,07,9.80
2017,04,05,02,08,9.80
2017,04,05,02,09,9.80
2017,04,05,02,10,9.80
2017,04,05,02,11,9.70
2017,04,05,02,12,9.70
2017,04,05,02,13,9.70
2017,04,05,02,14,9.70
2017,04,05,02,15,9.70
2017,04,05,02,17,9.70
2017,04,05,02,18,9.70
2017,04,05,02,19,9.70
2017,04,05,02,21,9.70
2017,04,05,02,22,9.70
2017,04,05,02,23,9.70
2017,04,05,02,24,9.70
2017,04,05,02,26,9.70
2017,04,05,02,27,9.70
2017,04,05,02,28,9.70
2017,04,05,02,29,9.70
2017,04,05,02,31,9.70
2017,04,05,02,32,9.70
2017,04,05,02,33,9.70
2017,04,05,02,34,9.70
2017,04,05,02,36,9.70
2017,04,05,02,37,9.70
2017,04,05,02,38,9.70
2017,04,05,02,39,9.70
2017,04,05,02,41,9.70
2017,04,05,02,42,9.70
2017,04,05,02,43,9.70
2017,04,05,02,44,9.70
2017,04,05,02,46,9.70
2017,04,05,02,47,9.70
2017,04,05,02,48,9.70
2017,04,05,02,49,9.70
2017,04,05,02,51,9.70
2017,04,05,02,52,9.70
2017,04,05,02,53,9.70
2017,04,05,02,54,9.70
2017,04,05,02,56,9.70
2017,04,05,02,57,9.70
2017,04,05,02,58,9.70
2017,04,05,02,59,9.70
2017,04,05,03,01,9.70
2017,04,05,03,02,9.70
2017,04,05,03,03,9.70
2017,04,05,03,04,9.70
2017,04,05,03,06,9.70
2017,04,05,03,07,9.70
2017,04,05,03,08,9.70
2017,04,05,03,09,9.70
2017,04,05,03,11,9.70
2017,04,05,03,12,9.70
2017,04,05,03,13,9.70
2017,04,05,03,14,9.70
2017,04,05,03,16,9.70
2017,04,05,03,17,9.70
2017,04,05,03,18,9.70
2017,04,05,03,19,9.60
2017,04,05,03,21,9.60
2017,04,05,03,22,9.60
2017,04,05,03,23,9.60
2017,04,05,03,24,9.60
2017,04,05,03,26,9.60
2017,04,05,03,27,9.60
2017,04,05,03,28,9.60
2017,04,05,03,29,9.60
2017,04,05,03,31,9.60
2017,04,05,03,32,9.60
2017,04,05,03,33,9.60
2017,04,05,03,34,9.60
2017,04,05,03,36,9.60
2017,04,05,03,37,9.60
2017,04,05,03,38,9.60
2017,04,05,03,39,9.60
2017,04,05,03,41,9.70
2017,04,05,03,42,9.70
2017,04,05,03,43,9.70
2017,04,05,03,44,9.70
2017,04,05,03,45,9.70
2017,04,05,03,46,9.70
2017,04,05,03,47,9.70
2017,04,05,03,48,9.70
2017,04,05,03,49,9.70
2017,04,05,03,50,9.70
2017,04,05,03,51,9.70
2017,04,05,03,52,9.70
2017,04,05,03,53,9.70
2017,04,05,03,54,9.70
2017,04,05,03,55,9.70
2017,04,05,03,56,9.70
2017,04,05,03,57,9.70
2017,04,05,03,58,9.70
2017,04,05,03,59,9.70
2017,04,05,04,00,9.70
2017,04,05,04,01,9.70
2017,04,05,04,02,9.70
2017,04,05,04,03,9.70
2017,04,05,04,04,9.70
2017,04,05,04,05,9.70
2017,04,05,04,06,9.70
2017,04,05,04,07,9.70
2017,04,05,04,08,9.70
2017,04,05,04,09,9.60
2017,04,05,04,10,9.60
2017,04,05,04,11,9.60
2017,04,05,04,12,9.60
2017,04,05,04,13,9.60
2017,04,05,04,14,9.50
2017,04,05,04,15,9.50
2017,04,05,04,16,9.50
2017,04,05,04,17,9.50
2017,04,05,04,18,9.50
2017,04,05,04,19,9.50
2017,04,05,04,20,9.40
2017,04,05,04,21,9.40
2017,04,05,04,22,9.40
2017,04,05,04,23,9.40
2017,04,05,04,24,9.40
2017,04,05,04,25,9.40
2017,04,05,04,26,9.40
2017,04,05,04,27,9.30
2017,04,05,04,28,9.30
2017,04,05,04,29,9.30
2017,04,05,04,30,9.30
2017,04,05,04,31,9.30
2017,04,05,04,32,9.30
2017,04,05,04,33,9.30
2017,04,05,04,34,9.30
2017,04,05,04,35,9.30
2017,04,05,04,36,9.30
2017,04,05,04,37,9.20
2017,04,05,04,38,9.20
2017,04,05,04,39,9.20
2017,04,05,04,40,9.20
2017,04,05,04,41,9.20
2017,04,05,04,42,9.20
2017,04,05,04,43,9.20
2017,04,05,04,44,9.20
2017,04,05,04,45,9.20
2017,04,05,04,46,9.20
2017,04,05,04,47,9.20
2017,04,05,04,48,9.20
2017,04,05,04,49,9.20
2017,04,05,04,50,9.20
2017,04,05,04,52,9.20
2017,04,05,04,53,9.20
2017,04,05,04,54,9.20
2017,04,05,04,56,9.20
2017,04,05,04,57,9.20
2017,04,05,04,58,9.20
2017,04,05,04,59,9.20
2017,04,05,05,01,9.10
2017,04,05,05,02,9.10
2017,04,05,05,03,9.10
2017,04,05,05,04,9.10
2017,04,05,05,06,9.10
2017,04,05,05,07,9.10
2017,04,05,05,08,9.10
2017,04,05,05,09,9.10
2017,04,05,05,11,9.10
2017,04,05,05,12,9.10
2017,04,05,05,13,9.10
2017,04,05,05,14,9.00
2017,04,05,05,16,9.00
2017,04,05,05,17,9.00
2017,04,05,05,18,9.00
2017,04,05,05,19,9.00
2017,04,05,05,21,9.00
2017,04,05,05,22,9.00
2017,04,05,05,23,9.00
2017,04,05,05,24,9.00
2017,04,05,05,26,9.00
2017,04,05,05,27,9.00
2017,04,05,05,28,9.00
2017,04,05,05,29,9.00
2017,04,05,05,31,9.00
2017,04,05,05,32,9.00
2017,04,05,05,33,9.00
2017,04,05,05,34,9.00
2017,04,05,05,36,9.00
2017,04,05,05,37,9.00
2017,04,05,05,38,9.00
2017,04,05,05,39,9.00
2017,04,05,05,41,9.00
2017,04,05,05,42,9.00
2017,04,05,05,43,9.00
2017,04,05,05,44,9.00
2017,04,05,05,46,9.00
2017,04,05,05,47,9.00
2017,04,05,05,48,9.00
2017,04,05,05,49,9.00
2017,04,05,05,51,9.00
2017,04,05,05,52,9.00
2017,04,05,05,53,9.00
2017,04,05,05,54,9.00
2017,04,05,05,56,9.00
2017,04,05,05,57,9.00
2017,04,05,05,58,9.00
2017,04,05,05,59,9.00
2017,04,05,06,01,9.00
2017,04,05,06,02,9.00
2017,04,05,06,03,9.00
2017,04,05,06,04,9.00
2017,04,05,06,06,9.00
2017,04,05,06,07,9.00
2017,04,05,06,08,9.00
2017,04,05,06,09,9.00
2017,04,05,06,11,9.00
2017,04,05,06,12,9.00
2017,04,05,06,13,9.00
2017,04,05,06,14,9.00
2017,04,05,06,15,9.00
2017,04,05,06,16,9.00
2017,04,05,06,17,9.00
2017,04,05,06,18,9.00
2017,04,05,06,19,9.00
2017,04,05,06,20,9.00
2017,04,05,06,21,9.00
2017,04,05,06,22,9.00
2017,04,05,06,23,9.00
2017,04,05,06,24,9.00
2017,04,05,06,25,9.00
2017,04,05,06,26,9.00
2017,04,05,06,27,8.90
2017,04,05,06,28,8.90
2017,04,05,06,29,8.90
2017,04,05,06,30,8.90
2017,04,05,06,31,8.90
2017,04,05,06,32,8.90
2017,04,05,06,33,8.90
2017,04,05,06,34,8.90
2017,04,05,06,35,8.90
2017,04,05,06,36,8.90
2017,04,05,06,37,8.90
2017,04,05,06,38,8.90
2017,04,05,06,39,8.90
2017,04,05,06,40,8.90
2017,04,05,06,41,8.90
2017,04,05,06,42,8.90
2017,04,05,06,43,8.90
2017,04,05,06,44,8.90
2017,04,05,06,45,8.90
2017,04,05,06,46,8.90
2017,04,05,06,47,8.90
2017,04,05,06,48,8.90
2017,04,05,06,49,8.90
2017,04,05,06,50,8.90
2017,04,05,06,51,8.90
2017,04,05,06,52,8.90
2017,04,05,06,53,8.90
2017,04,05,06,54,8.90
2017,04,05,06,55,8.90
2017,04,05,06,56,8.90
2017,04,05,06,57,8.90
2017,04,05,06,58,8.90
2017,04,05,06,59,8.90
2017,04,05,07,00,8.90
2017,04,05,07,01,8.90
2017,04,05,07,02,8.90
2017,04,05,07,03,8.90
2017,04,05,07,04,8.90
2017,04,05,07,05,8.90
2017,04,05,07,06,8.90
2017,04,05,07,07,8.90
2017,04,05,07,08,8.90
2017,04,05,07,09,8.90
2017,04,05,07,10,9.00
2017,04,05,07,11,9.00
2017,04,05,07,12,9.00
2017,04,05,07,13,9.00
2017,04,05,07,14,9.00
2017,04,05,07,15,9.00
2017,04,05,07,16,9.00
2017,04,05,07,17,9.00
2017,04,05,07,18,9.00
2017,04,05,07,19,9.00
2017,04,05,07,20,9.00
2017,04,05,07,21,9.00
2017,04,05,07,22,9.00
2017,04,05,07,23,9.00
2017,04,05,07,24,9.00
2017,04,05,07,25,9.00
2017,04,05,07,26,9.00
2017,04,05,07,27,9.10
2017,04,05,07,29,9.10
2017,04,05,07,31,9.10
2017,04,05,07,32,9.10
2017,04,05,07,33,9.10
2017,04,05,07,34,9.10
2017,04,05,07,36,9.10
2017,04,05,07,37,9.20
2017,04,05,07,38,9.20
2017,04,05,07,39,9.20
2017,04,05,07,41,9.20
2017,04,05,07,42,9.20
2017,04,05,07,43,9.20
2017,04,05,07,44,9.20
2017,04,05,07,46,9.20
2017,04,05,07,47,9.20
2017,04,05,07,48,9.20
2017,04,05,07,49,9.20
2017,04,05,07,51,9.20
2017,04,05,07,52,9.20
2017,04,05,07,53,9.10
2017,04,05,07,54,9.10
2017,04,05,07,56,9.10
2017,04,05,07,57,9.10
2017,04,05,07,58,9.10
2017,04,05,07,59,9.10
2017,04,05,08,01,9.10
2017,04,05,08,02,9.10
2017,04,05,08,03,9.10
2017,04,05,08,04,9.10
2017,04,05,08,06,9.10
2017,04,05,08,07,9.10
2017,04,05,08,08,9.10
2017,04,05,08,09,9.10
2017,04,05,08,11,9.10
2017,04,05,08,12,9.10
2017,04,05,08,13,9.10
2017,04,05,08,14,9.10
2017,04,05,08,16,9.10
2017,04,05,08,17,9.10
2017,04,05,08,18,9.10
2017,04,05,08,19,9.10
2017,04,05,08,21,9.10
2017,04,05,08,22,9.10
2017,04,05,08,23,9.10
2017,04,05,08,24,9.10
2017,04,05,08,26,9.10
2017,04,05,08,27,9.10
2017,04,05,08,28,9.10
2017,04,05,08,29,9.10
2017,04,05,08,31,9.10
2017,04,05,08,32,9.10
2017,04,05,08,33,9.10
2017,04,05,08,34,9.10
2017,04,05,08,36,9.10
2017,04,05,08,37,9.10
2017,04,05,08,38,9.10
2017,04,05,08,39,9.10
2017,04,05,08,41,9.10
2017,04,05,08,42,9.10
2017,04,05,08,43,9.10
2017,04,05,08,44,9.10
2017,04,05,08,45,9.10
2017,04,05,08,46,9.10
2017,04,05,08,47,9.10
2017,04,05,08,48,9.10
2017,04,05,08,49,9.10
2017,04,05,08,50,9.10
2017,04,05,08,51,9.10
2017,04,05,08,52,9.10
2017,04,05,08,53,9.10
2017,04,05,08,54,9.10
2017,04,05,08,55,9.10
2017,04,05,08,56,9.10
2017,04,05,08,57,9.10
2017,04,05,08,58,9.10
2017,04,05,08,59,9.20
2017,04,05,09,00,9.20
2017,04,05,09,01,9.20
2017,04,05,09,02,9.20
2017,04,05,09,03,9.20
2017,04,05,09,04,9.20
2017,04,05,09,05,9.20
2017,04,05,09,06,9.20
2017,04,05,09,07,9.20
2017,04,05,09,08,9.20
2017,04,05,09,09,9.20
2017,04,05,09,10,9.20
2017,04,05,09,11,9.20
2017,04,05,09,12,9.20
2017,04,05,09,13,9.20
2017,04,05,09,14,9.20
2017,04,05,09,15,9.20
2017,04,05,09,16,9.20
2017,04,05,09,17,9.20
2017,04,05,09,18,9.20
2017,04,05,09,19,9.20
2017,04,05,09,20,9.20
2017,04,05,09,21,9.20
2017,04,05,09,22,9.20
2017,04,05,09,23,9.20
2017,04,05,09,24,9.20
2017,04,05,09,25,9.20
2017,04,05,09,26,9.20
2017,04,05,09,27,9.20
2017,04,05,09,28,9.20
2017,04,05,09,29,9.20
2017,04,05,09,30,9.20
2017,04,05,09,31,9.20
2017,04,05,09,32,9.20
2017,04,05,09,33,9.20
2017,04,05,09,34,9.30
2017,04,05,09,35,9.30
2017,04,05,09,36,9.30
2017,04,05,09,37,9.30
2017,04,05,09,38,9.30
2017,04,05,09,39,9.30
2017,04,05,09,40,9.30
2017,04,05,09,41,9.30
2017,04,05,09,42,9.30
2017,04,05,09,44,9.30
2017,04,05,09,46,9.30
2017,04,05,09,47,9.30
2017,04,05,09,48,9.30
2017,04,05,09,49,9.30
2017,04,05,09,51,9.30
2017,04,05,09,52,9.30
2017,04,05,09,53,9.30
2017,04,05,09,54,9.30
2017,04,05,09,56,9.40
2017,04,05,09,57,9.40
2017,04,05,09,58,9.40
2017,04,05,09,59,9.40
2017,04,05,10,01,9.40
2017,04,05,10,02,9.40
2017,04,05,10,03,9.40
2017,04,05,10,04,9.40
2017,04,05,10,06,9.50
2017,04,05,10,07,9.50
2017,04,05,10,08,9.40
2017,04,05,10,09,9.40
2017,04,05,10,11,9.40
2017,04,05,10,12,9.40
2017,04,05,10,13,9.40
2017,04,05,10,14,9.40
2017,04,05,10,16,9.30
2017,04,05,10,17,9.30
2017,04,05,10,18,9.30
2017,04,05,10,19,9.30
2017,04,05,10,21,9.30
2017,04,05,10,22,9.30
2017,04,05,10,23,9.30
2017,04,05,10,24,9.30
2017,04,05,10,26,9.30
2017,04,05,10,27,9.30
2017,04,05,10,28,9.30
2017,04,05,10,29,9.30
2017,04,05,10,31,9.30
2017,04,05,10,32,9.40
2017,04,05,10,33,9.40
2017,04,05,10,34,9.40
2017,04,05,10,36,9.40
2017,04,05,10,37,9.40
2017,04,05,10,38,9.50
2017,04,05,10,39,9.50
2017,04,05,10,41,9.50
2017,04,05,10,42,9.50
2017,04,05,10,43,9.40
2017,04,05,10,44,9.40
2017,04,05,10,46,9.40
2017,04,05,10,47,9.40
2017,04,05,10,48,9.40
2017,04,05,10,49,9.40
2017,04,05,10,51,9.40
2017,04,05,10,52,9.40
2017,04,05,10,53,9.40
2017,04,05,10,54,9.50
2017,04,05,10,56,9.50
2017,04,05,10,57,9.50
2017,04,05,10,58,9.50
2017,04,05,10,59,9.60
2017,04,05,11,01,9.60
2017,04,05,11,02,9.60
2017,04,05,11,03,9.60
2017,04,05,11,04,9.70
2017,04,05,11,06,9.70
2017,04,05,11,07,9.70
2017,04,05,11,08,9.70
2017,04,05,11,09,9.70
2017,04,05,11,10,9.70
2017,04,05,11,11,9.80
2017,04,05,11,12,9.80
2017,04,05,11,13,9.90
2017,04,05,11,14,9.90
2017,04,05,11,15,9.90
2017,04,05,11,16,9.90
2017,04,05,11,17,9.90
2017,04,05,11,18,9.90
2017,04,05,11,19,9.90
2017,04,05,11,20,9.90
2017,04,05,11,21,9.90
2017,04,05,11,22,9.90
2017,04,05,11,23,9.90
2017,04,05,11,24,9.90
2017,04,05,11,25,9.90
2017,04,05,11,26,9.90
2017,04,05,11,27,9.90
2017,04,05,11,28,9.90
2017,04,05,11,29,9.90
2017,04,05,11,30,9.80
2017,04,05,11,31,9.80
2017,04,05,11,32,9.80
2017,04,05,11,33,9.80
2017,04,05,11,34,9.80
2017,04,05,11,35,9.80
2017,04,05,11,36,9.80
2017,04,05,11,37,9.80
2017,04,05,11,38,9.90
2017,04,05,11,39,9.90
2017,04,05,11,40,9.90
2017,04,05,11,41,9.90
2017,04,05,11,42,9.90
2017,04,05,11,43,9.90
2017,04,05,11,44,9.90
2017,04,05,11,45,9.90
2017,04,05,11,46,9.90
2017,04,05,11,47,9.90
2017,04,05,11,48,9.90
2017,04,05,11,49,9.90
2017,04,05,11,50,9.90
2017,04,05,11,51,9.90
2017,04,05,11,52,9.90
2017,04,05,11,53,9.90
2017,04,05,11,54,9.90
2017,04,05,11,55,9.90
2017,04,05,11,56,9.90
2017,04,05,11,57,9.90
2017,04,05,11,58,9.90
2017,04,05,11,59,9.90
2017,04,05,12,00,9.90
2017,04,05,12,01,9.90
2017,04,05,12,02,9.90
2017,04,05,12,03,9.90
2017,04,05,12,04,9.90
2017,04,05,12,05,10.10
2017,04,05,12,06,10.10
2017,04,05,12,07,10.10
2017,04,05,12,08,10.10
2017,04,05,12,09,10.10
2017,04,05,12,10,10.10
2017,04,05,12,11,10.10
2017,04,05,12,12,10.10
2017,04,05,12,13,10.10
2017,04,05,12,14,10.10
2017,04,05,12,15,10.10
2017,04,05,12,16,10.10
2017,04,05,12,17,10.10
2017,04,05,12,18,10.10
2017,04,05,12,19,10.10
2017,04,05,12,20,10.10
2017,04,05,12,21,10.10
2017,04,05,12,22,10.10
2017,04,05,12,23,10.20
2017,04,05,12,24,10.20
2017,04,05,12,25,10.20
2017,04,05,12,26,10.10
2017,04,05,12,27,10.10
2017,04,05,12,28,10.10
2017,04,05,12,29,10.10
2017,04,05,12,30,10.10
2017,04,05,12,32,10.10
2017,04,05,12,33,10.10
2017,04,05,12,34,10.10
2017,04,05,12,36,10.10
2017,04,05,12,37,10.10
2017,04,05,12,38,10.10
2017,04,05,12,39,10.10
2017,04,05,12,41,10.20
2017,04,05,12,42,10.20
2017,04,05,12,43,10.20
2017,04,05,12,44,10.20
2017,04,05,12,46,10.20
2017,04,05,12,47,10.20
2017,04,05,12,48,10.20
2017,04,05,12,49,10.20
2017,04,05,12,51,10.20
2017,04,05,12,52,10.20
2017,04,05,12,53,10.20
2017,04,05,12,54,10.20
2017,04,05,12,56,10.10
2017,04,05,12,57,10.10
2017,04,05,12,58,10.10
2017,04,05,12,59,9.90
2017,04,05,13,01,9.90
2017,04,05,13,02,9.90
2017,04,05,13,03,9.90
2017,04,05,13,04,9.90
2017,04,05,13,06,9.90
2017,04,05,13,07,9.90
2017,04,05,13,08,9.90
2017,04,05,13,09,9.90
2017,04,05,13,11,9.90
2017,04,05,13,12,9.90
2017,04,05,13,13,10.10
2017,04,05,13,14,10.10
2017,04,05,13,16,10.10
2017,04,05,13,17,10.20
2017,04,05,13,18,10.20
2017,04,05,13,19,10.20
2017,04,05,13,21,10.20
2017,04,05,13,22,10.20
2017,04,05,13,23,10.20
2017,04,05,13,24,10.20
2017,04,05,13,26,10.30
2017,04,05,13,27,10.30
2017,04,05,13,28,10.30
2017,04,05,13,29,10.30
2017,04,05,13,31,10.40
2017,04,05,13,32,10.40
2017,04,05,13,33,10.40
2017,04,05,13,34,10.40
2017,04,05,13,36,10.40
2017,04,05,13,37,10.40
2017,04,05,13,38,10.40
2017,04,05,13,39,10.40
2017,04,05,13,41,10.40
2017,04,05,13,42,10.40
2017,04,05,13,43,10.40
2017,04,05,13,44,10.40
2017,04,05,13,46,10.40
2017,04,05,13,47,10.60
2017,04,05,13,48,10.60
2017,04,05,13,49,10.60
2017,04,05,13,51,10.60
2017,04,05,13,52,10.60
2017,04,05,13,53,10.70
2017,04,05,13,54,10.70
2017,04,05,13,56,10.80
2017,04,05,13,57,10.90
2017,04,05,13,58,10.90
2017,04,05,13,59,10.90
2017,04,05,14,01,10.90
2017,04,05,14,02,10.90
2017,04,05,14,03,10.90
2017,04,05,14,04,11.10
2017,04,05,14,06,11.10
2017,04,05,14,07,11.10
2017,04,05,14,08,11.10
2017,04,05,14,09,11.10
2017,04,05,14,10,11.10
2017,04,05,14,11,11.10
2017,04,05,14,12,11.10
2017,04,05,14,13,11.10
2017,04,05,14,14,11.20
2017,04,05,14,15,11.20
2017,04,05,14,16,11.20
2017,04,05,14,17,11.30
2017,04,05,14,18,11.30
2017,04,05,14,19,11.30
2017,04,05,14,20,11.40
2017,04,05,14,21,11.30
2017,04,05,14,22,11.30
2017,04,05,14,23,11.30
2017,04,05,14,24,11.30
2017,04,05,14,25,11.30
2017,04,05,14,26,11.30
2017,04,05,14,27,11.30
2017,04,05,14,28,11.30
2017,04,05,14,29,11.30
2017,04,05,14,30,11.30
2017,04,05,14,31,11.20
2017,04,05,14,32,11.20
2017,04,05,14,33,11.20
2017,04,05,14,34,11.20
2017,04,05,14,35,11.30
2017,04,05,14,36,11.30
2017,04,05,14,37,11.30
2017,04,05,14,38,11.40
2017,04,05,14,39,11.40
2017,04,05,14,40,11.40
2017,04,05,14,41,11.40
2017,04,05,14,42,11.40
2017,04,05,14,43,11.40
2017,04,05,14,44,11.40
2017,04,05,14,45,11.40
2017,04,05,14,46,11.40
2017,04,05,14,47,11.40
2017,04,05,14,48,11.40
2017,04,05,14,49,11.40
2017,04,05,14,50,11.40
2017,04,05,14,51,11.40
2017,04,05,14,52,11.40
2017,04,05,14,53,11.40
2017,04,05,14,54,11.30
2017,04,05,14,55,11.30
2017,04,05,14,56,11.30
2017,04,05,14,57,11.30
2017,04,05,14,58,11.20
2017,04,05,14,59,11.20
2017,04,05,15,00,11.20
2017,04,05,15,01,11.20
2017,04,05,15,02,11.20
2017,04,05,15,03,11.20
2017,04,05,15,04,11.20
2017,04,05,15,05,11.20
2017,04,05,15,06,11.20
2017,04,05,15,07,11.20
2017,04,05,15,08,11.20
2017,04,05,15,09,11.10
2017,04,05,15,10,11.10
2017,04,05,15,11,11.10
2017,04,05,15,12,11.10
2017,04,05,15,13,10.90
2017,04,05,15,14,10.90
2017,04,05,15,15,10.90
2017,04,05,15,16,10.90
2017,04,05,15,17,10.80
2017,04,05,15,18,10.80
2017,04,05,15,19,10.80
2017,04,05,15,20,10.70
2017,04,05,15,22,10.70
2017,04,05,15,23,10.70
2017,04,05,15,24,10.70
2017,04,05,15,26,10.80
2017,04,05,15,27,10.80
2017,04,05,15,28,10.80
2017,04,05,15,29,10.90
2017,04,05,15,31,10.90
2017,04,05,15,32,10.90
2017,04,05,15,33,10.90
2017,04,05,15,34,10.80
2017,04,05,15,36,10.80
2017,04,05,15,37,10.80
2017,04,05,15,38,10.80
2017,04,05,15,39,10.70
2017,04,05,15,41,10.70
2017,04,05,15,42,10.80
2017,04,05,15,43,10.80
2017,04,05,15,44,10.80
2017,04,05,15,46,10.90
2017,04,05,15,47,10.90
2017,04,05,15,48,10.90
2017,04,05,15,49,10.90
2017,04,05,15,51,11.10
2017,04,05,15,52,11.10
2017,04,05,15,53,11.10
2017,04,05,15,54,11.20
2017,04,05,15,56,11.20
2017,04,05,15,57,11.30
2017,04,05,15,58,11.30
2017,04,05,15,59,11.20
2017,04,05,16,01,11.10
2017,04,05,16,02,11.10
2017,04,05,16,03,11.10
2017,04,05,16,04,10.90
2017,04,05,16,06,10.90
2017,04,05,16,07,10.90
2017,04,05,16,08,10.90
2017,04,05,16,09,10.90
2017,04,05,16,11,10.90
2017,04,05,16,12,10.80
2017,04,05,16,13,10.80
2017,04,05,16,14,10.70
2017,04,05,16,16,10.60
2017,04,05,16,17,10.60
2017,04,05,16,18,10.60
2017,04,05,16,19,10.60
2017,04,05,16,21,10.60
2017,04,05,16,22,10.70
2017,04,05,16,23,10.70
2017,04,05,16,24,10.70
2017,04,05,16,26,10.70
2017,04,05,16,27,10.70
2017,04,05,16,28,10.60
2017,04,05,16,29,10.60
2017,04,05,16,31,10.70
2017,04,05,16,32,10.70
2017,04,05,16,33,10.70
2017,04,05,16,34,10.70
2017,04,05,16,36,10.70
2017,04,05,16,37,10.70
2017,04,05,16,38,10.70
2017,04,05,16,39,10.70
2017,04,05,16,41,10.70
2017,04,05,16,42,10.70
2017,04,05,16,43,10.70
2017,04,05,16,44,10.70
2017,04,05,16,46,10.60
2017,04,05,16,47,10.60
2017,04,05,16,48,10.60
2017,04,05,16,49,10.60
2017,04,05,16,50,10.60
2017,04,05,16,51,10.60
2017,04,05,16,52,10.60
2017,04,05,16,53,10.60
2017,04,05,16,54,10.60
2017,04,05,16,55,10.40
2017,04,05,16,56,10.40
2017,04,05,16,57,10.40
2017,04,05,16,58,10.40
2017,04,05,16,59,10.40
2017,04,05,17,00,10.40
2017,04,05,17,01,10.40
2017,04,05,17,02,10.40
2017,04,05,17,03,10.40
2017,04,05,17,04,10.40
2017,04,05,17,05,10.40
2017,04,05,17,06,10.40
2017,04,05,17,07,10.40
2017,04,05,17,08,10.40
2017,04,05,17,09,10.40
2017,04,05,17,10,10.40
2017,04,05,17,11,10.40
2017,04,05,17,12,10.40
2017,04,05,17,13,10.30
2017,04,05,17,14,10.30
2017,04,05,17,15,10.30
2017,04,05,17,16,10.30
2017,04,05,17,17,10.30
2017,04,05,17,18,10.30
2017,04,05,17,19,10.20
2017,04,05,17,20,10.20
2017,04,05,17,21,10.10
2017,04,05,17,22,10.10
2017,04,05,17,23,10.10
2017,04,05,17,24,10.10
2017,04,05,17,25,10.10
2017,04,05,17,26,10.10
2017,04,05,17,27,10.10
2017,04,05,17,28,9.90
2017,04,05,17,29,9.90
2017,04,05,17,30,9.90
2017,04,05,17,31,9.90
2017,04,05,17,32,9.90
2017,04,05,17,33,9.90
2017,04,05,17,34,9.90
2017,04,05,17,35,9.90
2017,04,05,17,36,9.90
2017,04,05,17,37,9.90
2017,04,05,17,38,9.90
2017,04,05,17,39,9.90
2017,04,05,17,40,9.90
2017,04,05,17,41,9.90
2017,04,05,17,42,9.90
2017,04,05,17,43,9.90
2017,04,05,17,44,9.90
2017,04,05,17,45,9.90
2017,04,05,17,46,9.90
2017,04,05,17,47,9.90
2017,04,05,17,48,9.90
2017,04,05,17,49,9.90
2017,04,05,17,50,9.80
2017,04,05,17,51,9.80
2017,04,05,17,52,9.80
2017,04,05,17,53,9.80
2017,04,05,17,54,9.80
2017,04,05,17,55,9.80
2017,04,05,17,56,9.80
2017,04,05,17,57,9.80
2017,04,05,17,58,9.70
2017,04,05,17,59,9.70
2017,04,05,18,00,9.70
2017,04,05,18,01,9.70
2017,04,05,18,02,9.70
2017,04,05,18,03,9.70
2017,04,05,18,04,9.70
2017,04,05,18,05,9.80
2017,04,05,18,06,9.80
2017,04,05,18,07,9.80
2017,04,05,18,08,9.80
2017,04,05,18,09,9.80
2017,04,05,18,10,9.70
2017,04,05,18,11,9.70
2017,04,05,18,12,9.70
2017,04,05,18,13,9.70
2017,04,05,18,14,9.70
2017,04,05,18,15,9.70
2017,04,05,18,16,9.70
2017,04,05,18,18,9.70
2017,04,05,18,19,9.70
2017,04,05,18,21,9.70
2017,04,05,18,22,9.70
2017,04,05,18,23,9.70
2017,04,05,18,24,9.70
2017,04,05,18,26,9.60
2017,04,05,18,27,9.60
2017,04,05,18,28,9.60
2017,04,05,18,29,9.60
2017,04,05,18,31,9.60
2017,04,05,18,32,9.60
2017,04,05,18,33,9.60
2017,04,05,18,34,9.60
2017,04,05,18,36,9.60
2017,04,05,18,37,9.60
2017,04,05,18,38,9.60
2017,04,05,18,39,9.60
2017,04,05,18,41,9.60
2017,04,05,18,42,9.60
2017,04,05,18,43,9.60
2017,04,05,18,44,9.70
2017,04,05,18,46,9.70
2017,04,05,18,47,9.70
2017,04,05,18,48,9.70
2017,04,05,18,49,9.70
2017,04,05,18,51,9.70
2017,04,05,18,52,9.70
2017,04,05,18,53,9.70
2017,04,05,18,54,9.70
2017,04,05,18,56,9.70
2017,04,05,18,57,9.70
2017,04,05,18,58,9.70
2017,04,05,18,59,9.70
2017,04,05,19,01,9.70
2017,04,05,19,02,9.70
2017,04,05,19,03,9.70
2017,04,05,19,04,9.70
2017,04,05,19,06,9.70
2017,04,05,19,07,9.70
2017,04,05,19,08,9.70
2017,04,05,19,09,9.70
2017,04,05,19,11,9.70
2017,04,05,19,12,9.70
2017,04,05,19,13,9.70
2017,04,05,19,14,9.70
2017,04,05,19,16,9.70
2017,04,05,19,17,9.70
2017,04,05,19,18,9.70
2017,04,05,19,19,9.70
2017,04,05,19,21,9.70
2017,04,05,19,22,9.70
2017,04,05,19,23,9.70
2017,04,05,19,24,9.70
2017,04,05,19,26,9.70
2017,04,05,19,27,9.70
2017,04,05,19,28,9.70
2017,04,05,19,29,9.70
2017,04,05,19,31,9.70
2017,04,05,19,32,9.70
2017,04,05,19,33,9.70
2017,04,05,19,34,9.70
2017,04,05,19,36,9.70
2017,04,05,19,37,9.70
2017,04,05,19,38,9.70
2017,04,05,19,39,9.70
2017,04,05,19,41,9.70
2017,04,05,19,42,9.70
2017,04,05,19,43,9.70
2017,04,05,19,44,9.70
2017,04,05,19,45,9.70
2017,04,05,19,46,9.70
2017,04,05,19,47,9.70
2017,04,05,19,48,9.70
2017,04,05,19,49,9.70
2017,04,05,19,50,9.70
2017,04,05,19,51,9.70
2017,04,05,19,52,9.70
2017,04,05,19,53,9.70
2017,04,05,19,54,9.70
2017,04,05,19,55,9.70
2017,04,05,19,56,9.70
2017,04,05,19,57,9.70
2017,04,05,19,58,9.70
2017,04,05,19,59,9.70
2017,04,05,20,00,9.70
2017,04,05,20,01,9.70
2017,04,05,20,02,9.70
2017,04,05,20,03,9.70
2017,04,05,20,04,9.70
2017,04,05,20,05,9.70
2017,04,05,20,06,9.70
2017,04,05,20,07,9.70
2017,04,05,20,08,9.70
2017,04,05,20,09,9.70
2017,04,05,20,10,9.70
2017,04,05,20,11,9.70
2017,04,05,20,12,9.70